• In Deutschland
  • Länderverzeichnis
  • Für 7 Tage
  • Wassertemperatur
  • Satellitenkarten
  • Wetterkarte
  • Widgets
  • user-avatar
    Anmelden

    Stündliche Wetter Bolgatanga

    Heute, 24 Oktober, Mittwoch

    Zeit Temperatur Niederschläge Wind Luftdruck Luftfeuchtigkeit
    00:00 +31°C° 0 mm 1 m/S 741 mmHg 35%
    01:00 +30°C° 0 mm 1 m/S 741 mmHg 37%
    02:00 +29°C° 0 mm 1 m/S 741 mmHg 39%
    03:00 +29°C° 0 mm 2 m/S 740 mmHg 42%
    04:00 +28°C° 0 mm 2 m/S 741 mmHg 46%
    05:00 +28°C° 0 mm 2 m/S 741 mmHg 50%
    06:00 +27°C° 0 mm 2 m/S 741 mmHg 54%
    07:00 +29°C° 0 mm 2 m/S 741 mmHg 51%
    08:00 +31°C° 0 mm 2 m/S 742 mmHg 49%
    09:00 +35°C° 0 mm 3 m/S 742 mmHg 46%
    10:00 +37°C° 0 mm 2 m/S 742 mmHg 39%
    11:00 +39°C° 0 mm 2 m/S 741 mmHg 33%
    12:00 +41°C° 0 mm 1 m/S 741 mmHg 26%
    13:00 +42°C° 0 mm 2 m/S 740 mmHg 23%
    14:00 +42°C° 0 mm 2 m/S 739 mmHg 20%
    15:00 +43°C° 0 mm 3 m/S 739 mmHg 17%
    16:00 +40°C° 0 mm 2 m/S 739 mmHg 20%
    17:00 +38°C° 0 mm 2 m/S 739 mmHg 22%
    18:00 +35°C° 0 mm 1 m/S 739 mmHg 25%
    19:00 +34°C° 0 mm 1 m/S 739 mmHg 27%
    20:00 +34°C° 0 mm 1 m/S 740 mmHg 29%
    21:00 +33°C° 0 mm 1 m/S 740 mmHg 31%
    22:00 +32°C° 0 mm 1 m/S 740 mmHg 33%
    23:00 +32°C° 0 mm 1 m/S 740 mmHg 35%

    Morgen, 25 Oktober, Donnerstag

    Zeit Temperatur Niederschläge Wind Luftdruck Luftfeuchtigkeit
    00:00 +31°C° 0 mm 2 m/S 740 mmHg 37%
    01:00 +31°C° 0 mm 2 m/S 740 mmHg 40%
    02:00 +30°C° 0 mm 2 m/S 740 mmHg 43%
    03:00 +29°C° 0 mm 2 m/S 739 mmHg 46%
    04:00 +29°C° 0 mm 2 m/S 740 mmHg 52%
    05:00 +28°C° 0 mm 2 m/S 740 mmHg 57%
    06:00 +28°C° 0 mm 2 m/S 740 mmHg 63%
    07:00 +30°C° 0 mm 3 m/S 741 mmHg 60%
    08:00 +32°C° 0 mm 4 m/S 741 mmHg 56%
    09:00 +34°C° 0 mm 4 m/S 742 mmHg 53%
    10:00 +36°C° 0 mm 4 m/S 741 mmHg 47%
    11:00 +38°C° 0 mm 4 m/S 741 mmHg 41%
    12:00 +41°C° 0 mm 4 m/S 740 mmHg 36%
    13:00 +40°C° 0 mm 3 m/S 739 mmHg 32%
    14:00 +41°C° 0 mm 2 m/S 739 mmHg 28%
    15:00 +42°C° 0 mm 2 m/S 738 mmHg 24%
    16:00 +40°C° 0 mm 2 m/S 738 mmHg 26%
    17:00 +38°C° 0 mm 2 m/S 738 mmHg 29%
    18:00 +35°C° 0 mm 1 m/S 738 mmHg 31%
    19:00 +35°C° 0 mm 1 m/S 739 mmHg 33%
    20:00 +35°C° 0 mm 2 m/S 740 mmHg 35%
    21:00 +34°C° 0 mm 2 m/S 740 mmHg 37%
    22:00 +34°C° 0 mm 2 m/S 740 mmHg 40%
    23:00 +32°C° 0 mm 2 m/S 740 mmHg 43%

    übermorgen, 26 Oktober, Freitag

    Zeit Temperatur Niederschläge Wind Luftdruck Luftfeuchtigkeit
    00:00 +31°C° 0 mm 3 m/S 740 mmHg 46%
    01:00 +31°C° 0 mm 3 m/S 740 mmHg 49%
    02:00 +31°C° 0 mm 2 m/S 740 mmHg 53%
    03:00 +30°C° 0 mm 2 m/S 739 mmHg 56%
    04:00 +30°C° 0 mm 2 m/S 739 mmHg 59%
    05:00 +29°C° 0 mm 2 m/S 740 mmHg 61%
    06:00 +29°C° 0 mm 2 m/S 740 mmHg 64%
    07:00 +31°C° 0 mm 3 m/S 741 mmHg 60%
    08:00 +33°C° 0 mm 3 m/S 741 mmHg 57%
    09:00 +35°C° 0 mm 4 m/S 742 mmHg 53%
    10:00 +36°C° 0 mm 4 m/S 742 mmHg 48%
    11:00 +38°C° 0 mm 3 m/S 741 mmHg 42%
    12:00 +40°C° 0 mm 3 m/S 741 mmHg 37%
    13:00 +40°C° 0 mm 3 m/S 740 mmHg 34%
    14:00 +41°C° 0 mm 2 m/S 739 mmHg 32%
    15:00 +41°C° 0 mm 2 m/S 738 mmHg 29%
    16:00 +40°C° 0 mm 2 m/S 739 mmHg 32%
    17:00 +38°C° 0 mm 2 m/S 739 mmHg 36%
    18:00 +37°C° 0 mm 2 m/S 739 mmHg 39%
    19:00 +36°C° 0 mm 2 m/S 740 mmHg 42%
    20:00 +35°C° 0 mm 2 m/S 740 mmHg 45%
    21:00 +34°C° 0 mm 2 m/S 741 mmHg 48%
    22:00 +32°C° 0 mm 2 m/S 741 mmHg 49%
    23:00 +32°C° 0 mm 2 m/S 741 mmHg 51%

    27 Oktober, Samstag

    Zeit Temperatur Niederschläge Wind Luftdruck Luftfeuchtigkeit
    00:00 +31°C° 0 mm 2 m/S 741 mmHg 52%
    01:00 +30°C° 2.1 mm 3 m/S 741 mmHg 60%
    02:00 +29°C° 2.1 mm 4 m/S 741 mmHg 68%
    03:00 +28°C° 2.1 mm 4 m/S 741 mmHg 76%
    04:00 +28°C° 0.4 mm 4 m/S 741 mmHg 77%
    05:00 +28°C° 0.4 mm 3 m/S 742 mmHg 78%
    06:00 +28°C° 0.4 mm 3 m/S 742 mmHg 79%
    07:00 +29°C° 0 mm 3 m/S 742 mmHg 75%
    08:00 +30°C° 0 mm 3 m/S 743 mmHg 71%
    09:00 +30°C° 0 mm 3 m/S 743 mmHg 67%
    10:00 +31°C° 0 mm 3 m/S 743 mmHg 63%
    11:00 +33°C° 0 mm 3 m/S 742 mmHg 59%
    12:00 +34°C° 0 mm 3 m/S 741 mmHg 54%
    13:00 +35°C° 0 mm 3 m/S 741 mmHg 49%
    14:00 +37°C° 0 mm 2 m/S 740 mmHg 44%
    15:00 +38°C° 0 mm 2 m/S 739 mmHg 39%
    16:00 +37°C° 0 mm 2 m/S 739 mmHg 42%
    17:00 +35°C° 0 mm 2 m/S 740 mmHg 44%
    18:00 +34°C° 0 mm 2 m/S 740 mmHg 47%
    19:00 +33°C° 0 mm 1 m/S 740 mmHg 49%
    20:00 +32°C° 0 mm 1 m/S 741 mmHg 51%
    21:00 +32°C° 0 mm 1 m/S 742 mmHg 53%
    22:00 +31°C° 0 mm 1 m/S 742 mmHg 54%
    23:00 +31°C° 0 mm 2 m/S 741 mmHg 56%

    28 Oktober, Sonntag

    Zeit Temperatur Niederschläge Wind Luftdruck Luftfeuchtigkeit
    00:00 +30°C° 0 mm 2 m/S 741 mmHg 58%
    01:00 +30°C° 0 mm 2 m/S 741 mmHg 61%
    02:00 +29°C° 0 mm 2 m/S 741 mmHg 63%
    03:00 +29°C° 0 mm 2 m/S 741 mmHg 66%
    04:00 +29°C° 0 mm 2 m/S 741 mmHg 69%
    05:00 +28°C° 0 mm 2 m/S 742 mmHg 72%
    06:00 +28°C° 0 mm 1 m/S 742 mmHg 75%
    07:00 +29°C° 0 mm 1 m/S 743 mmHg 69%
    08:00 +31°C° 0 mm 2 m/S 743 mmHg 64%
    09:00 +34°C° 0 mm 2 m/S 744 mmHg 58%
    10:00 +35°C° 0 mm 1 m/S 743 mmHg 52%
    11:00 +36°C° 0 mm 1 m/S 742 mmHg 46%
    12:00 +39°C° 0 mm 1 m/S 742 mmHg 40%
    13:00 +39°C° 0 mm 1 m/S 741 mmHg 38%
    14:00 +39°C° 0 mm 1 m/S 740 mmHg 36%
    15:00 +40°C° 0 mm 2 m/S 739 mmHg 34%
    16:00 +38°C° 0 mm 2 m/S 740 mmHg 36%
    17:00 +37°C° 0 mm 2 m/S 740 mmHg 39%
    18:00 +35°C° 0 mm 1 m/S 740 mmHg 41%
    19:00 +34°C° 0.2 mm 1 m/S 740 mmHg 44%
    20:00 +33°C° 0.2 mm 1 m/S 741 mmHg 47%
    21:00 +33°C° 0.2 mm 1 m/S 741 mmHg 50%
    22:00 +32°C° 0 mm 1 m/S 741 mmHg 52%
    23:00 +32°C° 0 mm 1 m/S 741 mmHg 54%

    29 Oktober, Montag

    Zeit Temperatur Niederschläge Wind Luftdruck Luftfeuchtigkeit
    00:00 +31°C° 0 mm 1 m/S 741 mmHg 56%
    01:00 +30°C° 0.2 mm 1 m/S 740 mmHg 60%
    02:00 +30°C° 0.2 mm 1 m/S 740 mmHg 64%
    03:00 +29°C° 0.2 mm 1 m/S 740 mmHg 69%
    04:00 +29°C° 0.4 mm 1 m/S 741 mmHg 71%
    05:00 +28°C° 0.4 mm 1 m/S 741 mmHg 74%
    06:00 +26°C° 0.4 mm 0 m/S 742 mmHg 77%
    07:00 +30°C° 0 mm 1 m/S 742 mmHg 71%
    08:00 +31°C° 0 mm 2 m/S 742 mmHg 65%
    09:00 +34°C° 0 mm 3 m/S 743 mmHg 59%
    10:00 +35°C° 0 mm 2 m/S 742 mmHg 52%
    11:00 +37°C° 0 mm 2 m/S 741 mmHg 46%
    12:00 +39°C° 0 mm 2 m/S 741 mmHg 39%
    13:00 +40°C° 0 mm 1 m/S 740 mmHg 36%
    14:00 +40°C° 0 mm 1 m/S 739 mmHg 34%
    15:00 +41°C° 0 mm 1 m/S 738 mmHg 31%
    16:00 +40°C° 0 mm 1 m/S 739 mmHg 33%
    17:00 +37°C° 0 mm 1 m/S 739 mmHg 36%
    18:00 +36°C° 0 mm 1 m/S 739 mmHg 38%
    19:00 +36°C° 0 mm 2 m/S 740 mmHg 41%
    20:00 +36°C° 0 mm 2 m/S 740 mmHg 43%
    21:00 +35°C° 0 mm 2 m/S 741 mmHg 45%
    22:00 +35°C° 0 mm 2 m/S 741 mmHg 48%
    23:00 +34°C° 0 mm 2 m/S 740 mmHg 50%

    30 Oktober, Dienstag

    Zeit Temperatur Niederschläge Wind Luftdruck Luftfeuchtigkeit
    00:00 +32°C° 0 mm 2 m/S 740 mmHg 52%
    01:00 +33°C° 0.1 mm 3 m/S 740 mmHg 55%
    02:00 +31°C° 0.1 mm 3 m/S 740 mmHg 58%
    03:00 +32°C° 0.1 mm 4 m/S 740 mmHg 62%
    04:00 +30°C° 0.1 mm 3 m/S 740 mmHg 66%
    05:00 +29°C° 0.1 mm 2 m/S 740 mmHg 70%
    06:00 +29°C° 0.1 mm 2 m/S 741 mmHg 73%
    07:00 +30°C° 0.1 mm 2 m/S 741 mmHg 69%
    08:00 +31°C° 0.1 mm 2 m/S 742 mmHg 65%
    09:00 +32°C° 0.1 mm 2 m/S 742 mmHg 61%
    10:00 +34°C° 0 mm 3 m/S 742 mmHg 56%
    11:00 +36°C° 0 mm 3 m/S 741 mmHg 51%
    12:00 +37°C° 0 mm 4 m/S 740 mmHg 46%
    13:00 +38°C° 0 mm 3 m/S 739 mmHg 42%
    14:00 +38°C° 0 mm 2 m/S 739 mmHg 38%
    15:00 +39°C° 0 mm 1 m/S 738 mmHg 35%
    16:00 +37°C° 0 mm 1 m/S 738 mmHg 37%
    17:00 +36°C° 0 mm 1 m/S 738 mmHg 40%
    18:00 +35°C° 0 mm 1 m/S 738 mmHg 43%
    19:00 +35°C° 0.1 mm 2 m/S 739 mmHg 46%
    20:00 +34°C° 0.1 mm 2 m/S 739 mmHg 50%
    21:00 +34°C° 0.1 mm 2 m/S 740 mmHg 53%
    22:00 +32°C° 0 mm 2 m/S 740 mmHg 56%
    23:00 +31°C° 0 mm 3 m/S 740 mmHg 59%
    Mehr zeigen